Orbital Elements at Epoch 2459000.5 (2020-May-31.0) TDB
Reference: JPL 26 (heliocentric ecliptic J2000)
Element | Value | Uncertainty (1-sigma) | Units |
e | .2786549710717114 | 3.7122e-08 | |
a | 3.157867600024026 | 2.4802e-08 | au |
q | 2.277912095291037 | 1.2484e-07 | au |
i | 25.17103464355408 | 5.772e-06 | deg |
node | 205.7067025839667 | 9.1114e-06 | deg |
peri | 249.9558633573761 | 1.3369e-05 | deg |
M | 334.4611751098045 | 1.0724e-05 | deg |
tp | 2459145.907802956777 (2020-Oct-23.40780296) | 6.2146e-05 | TDB |
period | 2049.695289016057 5.61 | 2.4147e-05 6.611e-08 | d yr |
n | .175635862525115 | 2.0692e-09 | deg/d |
Q | 4.037823104757017 | 3.1713e-08 | au |
|
| | Orbit Determination Parameters
Additional Information
|